Location: Choisy
(48.7685°N, 2.4187°E)
Time: 01:15:55
(UTC+00:00)

Envisat - Pass Details

Date: 03 March 2024
Orbit: 762 x 764 km, 98.3° (Epoch: 12 April)

Event Time Altitude Azimuth Distance (km) Brightness Sun altitude
Rises 04:04:44 0° 9° (N) 3,242 6.6 -24.1°
Reaches altitude 10° 04:07:07 10° 3° (N) 2,311 5.7 -23.7°
Enters shadow 04:11:33 44° 306° (NW) 1,054 3.4 -23.0°
